Wetbulb
46.09 41.38 38.84 41.42 43.06 42.68 42.09 41.37 40.93 43.54 44.89 43.99 45.14 45.62 47.01 50.20 48.84 47.99 48.17 48.37 48.70 49.07 50.92 50.40 50.63 52.29 53.70 54.86 54.80 53.67 52.70 52.94 53.46 53.46 53.55 53.81 53.94 54.94 55.27 53.88 53.14 53.11 53.33 53.56
41.33 37.74 43.06 44.41 43.77 42.56 41.84 40.90 40.86 43.07 44.08 42.69 44.70 44.01 47.57 47.13 45.14 44.95 45.65 46.01 46.62 47.10 48.37 48.78 49.73 51.11 52.08 52.62 52.90 52.50 52.44 52.76 53.33 53.72 53.69 54.19 54.65 54.83 54.14 53.44 53.11 53.10 53.37 53.81
38.16 39.77 44.11 42.65 40.94 39.73 40.36 39.45 40.18 39.55 42.13 43.69 42.52 44.48 43.45 45.33 45.36 44.47 44.70 45.36 45.73 45.31 45.55 46.87 47.97 49.79 51.21 51.25 51.62 51.85 52.25 52.46 52.66 52.99 53.60 54.14 54.71 54.83 53.68 53.09 52.70 53.04 53.26 53.80
40.47 42.48 41.28 40.59 39.13 40.67 36.47 42.56 41.59 40.43 38.69 37.36 42.44 40.59 40.73 44.83 43.55 42.90 42.61 42.90 43.40 44.59 45.38 45.52 46.69 48.21 49.54 50.38 51.83 51.88 51.99 52.05 52.32 53.21 53.08 52.87 52.72 52.05 52.50 53.00 52.90 52.96 53.21 53.88
37.75 38.96 39.15 38.36 39.48 42.38 39.11 42.56 41.42 41.31 39.98 40.42 40.04 38.95 43.37 43.13 42.27 39.99 40.70 41.19 41.78 43.37 44.50 44.50 46.05 47.63 49.45 50.77 51.15 51.65 51.74 51.75 52.35 52.76 52.99 53.34 52.84 52.85 52.90 52.50 52.30 52.71 53.40 54.19
39.71 42.52 42.52 41.66 41.14 42.54 42.74 41.52 41.36 41.57 40.68 35.03 39.82 38.73 42.15 37.57 34.97 37.82 39.36 39.89 40.38 41.56 43.45 45.29 47.06 48.19 48.77 50.37 50.80 51.16 50.90 50.75 51.86 52.15 52.46 52.58 52.24 51.89 51.54 52.47 52.34 52.99 53.84 54.43
37.04 38.67 40.91 41.97 39.47 41.62 41.41 38.93 33.46 32.41 32.62 32.60 35.07 34.82 36.99 35.88 36.89 36.41 36.61 37.97 39.06 40.35 41.32 42.45 44.17 45.64 46.95 47.89 49.05 49.32 49.67 49.08 50.37 50.93 51.45 51.70 51.63 51.49 50.90 52.13 52.66 53.08 53.70 54.13
31.44 28.23 37.76 41.94 41.38 39.06 38.65 39.84 36.14 28.89 29.95 33.44 33.72 32.62 35.41 35.67 37.29 38.23 38.15 37.93 38.44 38.31 38.98 39.23 40.45 41.93 43.20 44.69 46.19 47.68 48.16 48.16 49.15 49.71 50.38 51.42 51.60 51.16 51.52 51.87 52.31 52.79 53.60 54.13
32.10 32.07 38.48 39.80 41.34 42.35 38.20 34.55 39.60 32.47 29.14 31.05 35.45 34.61 34.39 36.54 35.33 36.16 35.93 36.41 35.66 36.09 36.80 37.48 38.32 39.04 39.83 40.99 42.15 42.95 44.18 46.07 47.28 48.30 49.46 50.14 51.03 51.00 50.78 51.50 51.36 52.33 54.04 54.34
37.85 30.85 36.44 37.63 40.69 40.54 39.44 41.96 34.33 35.87 27.36 26.14 32.99 33.22 35.59 32.81 33.41 33.86 33.32 33.68 34.58 35.71 36.17 36.54 36.88 37.16 38.30 39.04 39.86 40.69 41.45 42.01 43.17 44.29 46.60 48.44 49.74 50.53 51.07 51.26 50.58 51.34 52.42 52.78
40.79 37.84 32.53 36.87 36.17 36.16 36.50 35.40 36.40 37.03 34.38 28.53 27.53 31.43 33.93 33.39 32.92 32.25 32.32 33.28 33.86 34.58 35.03 35.62 36.16 36.72 36.90 37.61 37.79 38.18 38.52 39.12 40.02 42.83 43.77 45.86 48.00 49.10 49.88 50.35 50.97 51.03 52.01 51.52
41.44 38.21 31.36 32.75 37.15 38.91 38.98 37.54 37.93 32.28 29.73 32.60 30.38 30.05 34.46 33.47 33.02 33.49 32.47 32.91 33.68 34.31 34.79 35.20 35.39 35.58 35.23 35.23 36.08 36.24 36.55 36.65 37.76 39.34 41.29 42.28 44.05 46.12 47.53 48.43 49.24 50.50 50.44 51.82
41.15 34.06 31.09 31.10 35.49 37.32 35.15 37.28 37.75 36.68 35.89 30.42 29.67 30.86 34.09 33.00 32.40 32.69 32.34 32.57 32.92 33.31 33.65 34.18 34.29 33.84 33.95 34.27 34.59 35.10 35.19 35.24 36.41 37.06 37.32 37.64 38.20 39.28 40.75 42.86 45.50 47.44 48.41 49.86
41.71 35.83 34.16 31.33 32.75 36.27 32.07 34.80 36.66 36.12 32.17 32.18 32.94 29.33 29.88 31.51 31.02 31.57 31.46 32.15 32.27 32.28 32.32 32.42 32.53 32.74 32.98 33.43 33.47 34.04 34.53 35.04 35.55 35.83 35.46 34.89 35.30 36.25 37.10 38.46 39.76 41.56 44.63 46.68
37.06 32.35 33.97 33.44 34.00 34.76 33.80 33.25 34.60 33.76 35.69 32.43 34.91 33.14 32.17 33.07 31.91 31.26 31.59 31.65 31.09 30.48 30.35 30.41 30.14 30.66 31.08 30.43 30.68 32.56 33.05 33.01 34.08 33.89 33.75 33.46 34.64 35.60 35.78 35.99 36.89 38.41 39.64 41.62
36.16 31.16 33.29 30.25 33.93 33.85 32.35 33.32 34.00 34.08 34.14 34.63 33.55 28.99 35.47 33.67 32.88 31.58 30.90 30.64 29.45 28.69 28.25 28.56 28.57 28.60 27.72 26.98 27.29 29.70 29.92 29.22 30.58 29.71 29.48 30.87 32.05 33.45 33.93 34.67 35.49 36.02 36.36 37.10
33.31 32.39 31.36 28.42 30.66 31.77 29.16 30.13 30.90 29.86 30.14 30.30 31.62 30.60 31.43 30.20 30.20 29.61 29.31 29.27 28.09 27.91 27.40 26.90 26.72 27.08 26.42 25.76 26.85 27.13 27.35 28.07 27.38 26.86 27.31 27.53 28.00 28.83 30.48 32.50 33.23 33.75 34.04 35.34
30.28 31.35 31.41 28.33 28.25 24.35 26.99 30.21 30.69 30.16 28.54 29.72 29.51 30.10 32.04 30.75 29.81 29.77 30.41 28.93 27.29 26.86 26.52 26.29 26.35 26.58 26.32 25.79 26.16 27.33 27.02 26.37 25.75 25.11 25.35 26.00 26.22 26.53 27.80 28.37 28.39 29.39 31.60 33.19
32.03 30.91 26.43 26.44 25.99 25.41 26.61 27.76 28.09 28.41 26.27 29.35 28.62 29.14 30.06 29.64 29.27 27.33 29.65 29.06 27.36 26.80 26.69 26.14 26.63 26.45 26.08 24.78 25.33 26.08 25.59 25.17 24.48 23.56 23.63 24.33 24.82 24.94 25.99 26.53 26.57 27.97 28.31 29.08
30.20 30.86 28.72 26.50 23.03 20.81 25.50 27.57 29.86 29.58 25.50 28.69 29.54 28.71 28.95 28.72 25.04 27.15 28.91 28.30 27.14 26.59 26.45 25.23 25.63 26.10 25.14 24.29 24.80 24.91 24.38 23.63 22.29 22.40 22.49 23.44 24.33 23.78 23.91 25.39 25.49 26.86 27.53 27.53
24.17 25.50 24.24 25.19 24.22 25.73 27.12 28.38 30.27 23.85 24.37 28.33 29.21 28.49 30.19 27.73 28.71 29.01 28.06 26.75 26.43 25.66 24.96 24.98 24.81 24.15 23.74 23.91 23.60 22.99 23.26 21.24 22.02 22.35 21.53 21.63 21.96 22.03 23.15 24.43 24.69 25.36 25.58 26.59
21.46 21.82 21.66 22.75 21.22 19.02 29.28 27.67 25.46 27.80 29.53 28.88 28.86 28.47 27.69 28.40 27.53 26.87 26.32 25.84 25.11 24.13 23.90 23.32 22.69 22.76 23.59 23.08 21.67 20.77 20.74 21.08 20.86 19.81 17.72 17.53 18.54 19.87 21.78 22.11 22.46 23.60 23.97 24.47
19.08 24.79 25.77 25.30 25.34 27.21 31.33 28.88 29.71 31.63 29.65 29.42 29.27 29.07 28.84 27.46 26.77 26.37 25.72 25.49 24.80 24.14 23.41 22.52 21.41 21.33 22.46 22.03 20.64 18.52 19.22 18.62 16.65 13.24 13.39 15.42 17.13 18.52 20.19 19.80 19.97 20.86 22.24 22.47
21.94 22.19 22.58 21.98 24.68 25.40 27.77 29.16 30.28 30.86 30.73 30.79 30.68 29.36 28.46 26.90 26.74 25.58 25.30 25.12 24.20 23.64 22.07 20.89 19.70 19.43 19.36 19.81 18.81 17.83 16.70 15.03 10.67 10.88 12.64 14.77 15.90 16.49 17.69 18.45 19.25 19.34 19.74 20.09
23.15 22.20 21.94 21.15 22.32 24.50 26.41 29.25 30.39 29.68 30.19 29.16 29.31 28.84 27.80 27.31 25.94 25.22 24.62 24.35 23.56 22.44 20.47 19.26 17.95 17.39 16.70 16.90 15.59 14.83 13.04 10.08 8.35 9.30 11.23 13.27 14.85 14.35 15.06 16.28 17.26 18.02 19.11 19.85
21.83 22.05 20.99 22.18 27.06 27.30 27.69 29.20 31.58 28.83 27.92 28.68 27.24 25.11 26.04 26.43 25.36 24.30 23.16 23.41 22.01 20.02 18.49 16.52 15.82 14.25 13.77 12.66 11.23 10.46 8.39 7.07 5.60 7.11 9.88 10.60 10.85 11.97 12.97 13.88 14.33 18.13 19.21 20.20
MSLP
1011.73 1011.07 1010.37 1010.21 1010.61 1010.70 1010.27 1010.24 1010.00 1010.37 1010.67 1010.49 1009.48 1009.19 1008.92 1008.80 1009.60 1010.18 1010.46 1010.85 1011.14 1011.32 1011.71 1012.02 1012.03 1012.02 1011.75 1011.80 1012.41 1013.11 1013.80 1014.61 1015.25 1015.53 1015.70 1015.74 1015.75 1016.04 1016.17 1016.41 1016.65 1016.62 1016.72 1016.57
1011.83 1010.63 1010.60 1011.04 1011.16 1011.10 1010.85 1010.59 1010.71 1010.99 1011.12 1010.95 1009.72 1009.51 1009.34 1010.18 1011.44 1011.70 1012.23 1012.45 1012.72 1012.88 1012.78 1012.84 1012.80 1012.97 1012.78 1013.00 1013.48 1013.97 1014.43 1014.92 1015.27 1015.61 1015.98 1016.04 1016.01 1016.10 1016.28 1016.64 1016.85 1016.75 1016.71 1016.72
1010.68 1011.06 1010.97 1011.27 1011.09 1010.85 1010.81 1010.96 1011.15 1011.28 1011.42 1011.18 1010.99 1009.68 1010.30 1011.37 1011.91 1012.74 1013.52 1014.12 1014.45 1014.49 1014.31 1014.00 1013.91 1013.77 1013.75 1014.07 1014.48 1014.96 1015.53 1015.91 1016.22 1016.13 1016.24 1016.34 1016.39 1016.23 1016.16 1016.48 1016.59 1016.93 1016.73 1016.73
1011.24 1011.45 1011.17 1011.35 1011.25 1011.44 1011.42 1011.38 1011.74 1011.71 1011.91 1011.23 1011.15 1010.66 1010.53 1010.93 1012.28 1013.62 1014.72 1015.48 1015.93 1015.70 1015.56 1015.48 1015.11 1014.97 1015.01 1015.31 1015.47 1015.77 1016.22 1016.53 1016.74 1016.85 1016.73 1016.33 1016.32 1016.31 1016.40 1016.60 1016.68 1016.85 1016.90 1016.65
1011.76 1011.88 1011.75 1011.65 1011.46 1011.80 1011.87 1011.89 1011.90 1011.81 1011.82 1011.56 1011.61 1011.82 1010.71 1011.70 1013.04 1014.84 1016.13 1016.97 1017.31 1017.06 1016.61 1016.52 1016.32 1016.11 1016.22 1016.40 1016.51 1016.53 1016.72 1017.17 1017.33 1017.39 1017.07 1016.89 1016.64 1016.73 1016.99 1017.05 1016.94 1016.85 1016.99 1016.92
1012.18 1012.60 1012.09 1012.00 1012.34 1012.17 1012.61 1012.44 1012.46 1012.26 1012.01 1012.01 1011.74 1012.50 1012.25 1013.82 1015.67 1016.54 1017.53 1018.19 1018.43 1018.39 1018.05 1017.27 1017.30 1017.10 1017.08 1017.33 1017.28 1017.33 1017.44 1017.73 1017.85 1017.76 1017.72 1017.53 1017.35 1017.27 1017.25 1017.10 1017.00 1016.91 1016.90 1016.94
1012.21 1012.55 1012.73 1012.70 1012.49 1012.86 1012.81 1012.55 1012.53 1012.66 1012.43 1012.00 1012.72 1013.58 1013.96 1015.72 1017.11 1018.28 1018.89 1019.25 1019.62 1019.53 1019.42 1018.88 1018.41 1018.32 1018.23 1018.24 1018.21 1018.04 1018.08 1018.27 1018.35 1018.15 1018.20 1018.01 1018.06 1017.85 1017.73 1017.30 1017.32 1017.14 1016.93 1016.83
1011.57 1012.79 1012.64 1012.55 1012.07 1012.05 1012.59 1011.92 1011.29 1011.65 1012.03 1012.11 1013.41 1013.60 1014.95 1017.16 1018.29 1019.05 1019.73 1020.33 1020.49 1020.68 1020.68 1020.38 1020.13 1019.90 1019.61 1019.50 1019.37 1019.11 1019.16 1018.81 1018.76 1018.56 1018.56 1018.30 1018.31 1018.25 1018.09 1017.83 1017.57 1017.49 1017.30 1017.13
1010.80 1012.03 1012.90 1013.03 1012.78 1012.29 1012.67 1012.73 1012.14 1011.99 1012.98 1012.59 1012.33 1014.06 1016.29 1017.58 1018.82 1019.67 1020.35 1020.92 1021.35 1021.53 1021.62 1021.46 1021.22 1021.06 1020.86 1020.56 1020.55 1020.44 1019.96 1019.90 1019.32 1019.14 1018.83 1018.70 1018.60 1018.42 1018.33 1018.12 1018.08 1017.84 1017.64 1017.56
1011.31 1012.27 1013.41 1013.53 1013.40 1012.91 1012.67 1012.12 1012.21 1011.90 1012.06 1011.98 1012.08 1013.81 1015.30 1017.79 1019.30 1020.46 1021.27 1021.85 1022.20 1022.20 1022.13 1022.22 1022.21 1022.14 1021.83 1021.64 1021.54 1021.32 1021.06 1020.94 1020.30 1019.89 1019.49 1019.07 1018.92 1018.76 1018.60 1018.41 1018.25 1017.97 1017.91 1017.76
1012.51 1012.23 1014.07 1013.90 1013.29 1012.38 1012.80 1012.28 1011.97 1011.70 1011.79 1011.81 1012.84 1014.68 1017.12 1018.44 1020.15 1021.33 1022.34 1022.80 1022.98 1022.98 1023.16 1023.01 1022.87 1022.96 1023.02 1022.59 1022.37 1022.21 1021.99 1021.86 1021.20 1020.66 1020.16 1019.70 1019.37 1018.94 1018.91 1018.67 1018.49 1018.08 1017.91 1017.83
1013.52 1013.68 1013.82 1013.60 1013.57 1013.30 1012.62 1011.97 1011.90 1011.53 1012.07 1012.49 1014.06 1016.39 1018.48 1019.82 1021.29 1022.12 1022.92 1023.51 1023.87 1023.93 1023.75 1023.92 1024.24 1023.92 1023.56 1023.55 1023.38 1023.04 1022.99 1022.78 1022.26 1021.78 1021.15 1020.72 1020.41 1019.70 1019.22 1019.15 1018.78 1018.51 1018.02 1017.78
1014.00 1014.39 1014.49 1014.69 1014.56 1014.08 1013.51 1012.85 1012.48 1012.42 1012.45 1012.90 1014.33 1016.80 1019.24 1020.79 1021.80 1022.95 1023.63 1024.14 1024.42 1024.40 1024.55 1024.69 1025.03 1025.01 1024.65 1024.37 1024.12 1024.03 1023.88 1023.51 1023.09 1022.75 1022.48 1021.96 1021.57 1021.14 1020.59 1020.31 1019.82 1019.16 1018.59 1018.06
1014.94 1015.05 1014.76 1014.53 1014.12 1013.73 1013.90 1013.39 1013.30 1013.16 1013.00 1013.29 1014.01 1016.84 1019.46 1020.84 1022.21 1023.21 1024.11 1024.72 1024.96 1025.17 1025.36 1025.42 1025.66 1025.71 1025.78 1025.75 1025.49 1025.07 1024.56 1024.59 1024.06 1023.62 1023.31 1023.27 1022.68 1022.19 1021.70 1021.31 1020.83 1020.18 1019.52 1018.76
1016.64 1016.36 1016.16 1016.07 1015.86 1015.38 1015.03 1014.69 1014.49 1014.18 1014.06 1014.49 1015.21 1016.83 1018.82 1020.83 1022.40 1023.72 1024.74 1025.19 1025.56 1025.90 1026.06 1026.25 1026.49 1026.52 1026.58 1026.42 1026.30 1026.13 1025.45 1025.31 1025.01 1024.58 1024.15 1024.23 1023.84 1023.20 1022.71 1022.09 1021.60 1021.00 1020.37 1019.73
1017.68 1017.26 1016.90 1016.86 1016.64 1016.51 1016.45 1016.50 1016.39 1016.24 1016.25 1016.46 1017.33 1018.85 1020.05 1022.04 1023.39 1024.49 1025.07 1025.57 1026.15 1026.40 1026.72 1027.11 1027.27 1027.44 1027.28 1027.33 1027.22 1027.03 1026.48 1026.25 1025.86 1025.60 1025.29 1025.04 1024.64 1024.13 1023.72 1023.04 1022.37 1021.77 1021.21 1020.62
1018.20 1017.76 1017.57 1017.44 1017.59 1017.69 1018.00 1017.84 1017.90 1018.27 1018.49 1018.57 1018.83 1020.18 1021.73 1023.10 1024.36 1025.40 1025.94 1026.34 1026.73 1026.79 1027.34 1027.70 1027.79 1028.05 1027.99 1027.98 1027.93 1027.86 1027.58 1027.30 1026.90 1026.70 1026.36 1025.89 1025.50 1025.01 1024.58 1023.93 1023.29 1022.68 1022.02 1021.34
1018.65 1018.28 1018.08 1018.05 1018.21 1018.38 1018.85 1019.24 1019.26 1019.35 1020.02 1020.36 1020.89 1021.82 1022.79 1024.03 1025.31 1026.00 1026.54 1026.76 1027.01 1027.41 1027.89 1028.24 1028.50 1028.49 1028.41 1028.41 1028.45 1028.33 1028.13 1027.87 1027.65 1027.47 1027.18 1026.80 1026.35 1025.81 1025.31 1024.68 1024.20 1023.72 1023.05 1022.20
1019.28 1018.73 1018.64 1018.50 1018.46 1019.00 1019.36 1019.88 1020.20 1020.14 1021.10 1021.48 1021.97 1022.84 1023.77 1024.83 1025.63 1026.47 1026.84 1027.19 1027.55 1027.97 1028.43 1028.69 1028.85 1028.91 1028.86 1029.01 1029.02 1028.68 1028.51 1028.39 1028.20 1028.04 1027.76 1027.37 1026.93 1026.41 1025.87 1025.24 1024.75 1024.22 1023.58 1022.85
1020.07 1019.59 1019.19 1019.12 1018.86 1019.02 1019.55 1020.48 1021.02 1021.23 1021.48 1022.08 1022.51 1023.21 1023.97 1024.98 1025.38 1025.94 1026.99 1027.53 1027.99 1028.49 1028.86 1029.15 1029.37 1029.43 1029.44 1029.52 1029.42 1029.09 1028.93 1028.86 1028.76 1028.61 1028.38 1027.99 1027.47 1026.89 1026.22 1025.63 1025.10 1024.56 1023.86 1023.13
1021.10 1020.69 1020.19 1019.69 1019.48 1019.58 1020.35 1021.24 1021.80 1022.14 1022.25 1022.45 1022.91 1023.54 1024.10 1024.83 1025.52 1026.27 1027.11 1027.76 1028.33 1028.85 1029.29 1029.58 1029.69 1029.73 1029.88 1030.02 1029.95 1029.65 1029.46 1029.51 1029.50 1029.25 1028.95 1028.45 1027.97 1027.42 1026.72 1025.95 1025.40 1024.63 1023.91 1023.13
1021.90 1021.43 1021.06 1021.07 1020.92 1020.91 1021.08 1022.07 1022.38 1022.09 1022.29 1022.76 1023.36 1023.95 1024.48 1025.17 1025.98 1026.65 1027.26 1027.83 1028.47 1029.02 1029.43 1029.83 1029.89 1029.92 1030.01 1030.24 1030.30 1030.13 1029.95 1030.09 1029.97 1029.80 1029.59 1029.08 1028.53 1027.90 1027.05 1026.31 1025.51 1024.77 1024.05 1023.22
1023.17 1022.10 1021.34 1021.37 1021.07 1021.25 1021.32 1021.91 1022.29 1022.31 1022.46 1023.06 1023.61 1024.38 1024.87 1025.54 1026.15 1026.80 1027.37 1027.98 1028.50 1029.02 1029.50 1029.96 1030.16 1030.23 1030.30 1030.53 1030.75 1030.66 1030.63 1030.65 1030.55 1030.59 1030.09 1029.41 1028.73 1028.05 1027.39 1026.57 1025.68 1024.86 1024.15 1023.51
1022.86 1022.84 1022.39 1021.88 1021.42 1021.63 1022.02 1022.38 1022.54 1022.68 1022.81 1023.36 1023.93 1024.65 1025.28 1025.72 1026.31 1026.90 1027.48 1028.04 1028.65 1029.25 1029.78 1030.35 1030.65 1030.73 1030.88 1031.12 1031.33 1031.47 1031.51 1031.54 1031.52 1030.93 1030.18 1029.38 1028.61 1027.93 1027.33 1026.80 1026.01 1025.19 1024.41 1023.66
1022.67 1022.64 1021.98 1021.69 1021.64 1022.01 1022.13 1022.27 1022.52 1023.01 1023.46 1024.00 1024.59 1025.06 1025.54 1026.07 1026.67 1027.27 1027.80 1028.38 1029.03 1029.64 1030.32 1030.85 1031.17 1031.41 1031.64 1031.77 1031.85 1032.01 1032.18 1032.26 1031.91 1031.29 1030.42 1029.51 1028.81 1028.25 1027.40 1026.74 1026.05 1025.28 1024.74 1024.25
1021.56 1020.90 1020.88 1020.23 1020.15 1020.52 1020.59 1021.43 1022.33 1023.04 1023.64 1024.29 1025.03 1025.87 1026.41 1026.81 1027.29 1027.92 1028.43 1028.93 1029.48 1030.08 1030.74 1031.29 1031.71 1032.09 1032.24 1032.29 1032.37 1032.47 1032.56 1032.49 1032.23 1031.43 1030.48 1029.80 1029.10 1028.28 1027.54 1026.58 1025.44 1025.20 1024.52 1023.85
Wind_Speed
12 9 13 16 14 4 2 4 6 2 3 4 7 10 12 10 7 9 10 11 12 13 13 13 11 8 5 7 10 11 11 10 6 4 2 1 1 1 2 3 3 3 2 2
6 13 10 5 8 10 5 3 3 1 0 3 8 12 3 8 10 13 14 14 16 15 15 14 12 9 8 8 9 9 10 9 5 4 3 2 1 2 3 2 2 2 1 2
8 2 9 11 8 8 9 9 3 4 4 6 9 8 10 9 12 14 15 15 16 17 15 14 12 11 10 10 10 9 8 7 5 4 3 2 1 1 1 1 1 1 0 1
6 4 11 13 12 12 11 9 11 8 3 5 2 2 2 7 8 15 16 16 15 17 15 13 12 12 11 11 10 10 8 7 5 4 3 4 3 4 3 2 2 0 1 1
4 7 9 13 11 11 2 4 9 8 9 6 6 4 3 3 2 12 15 15 16 16 15 13 12 12 12 11 9 9 9 8 7 5 5 4 4 3 3 2 2 1 2 1
5 1 3 2 3 11 10 8 6 3 3 5 4 4 5 3 5 9 12 14 15 15 15 14 12 12 12 11 10 9 9 9 7 7 7 7 6 6 3 2 2 1 1 1
4 4 2 2 8 5 7 10 3 4 5 4 2 4 6 4 7 8 11 13 14 14 14 15 14 13 13 13 12 10 10 10 9 9 8 7 7 6 4 5 4 4 2 2
10 5 9 9 5 6 13 9 4 5 5 4 2 6 5 7 6 7 9 11 12 14 13 13 14 13 13 13 13 12 11 10 10 9 8 7 6 4 4 4 4 4 4 4
9 6 2 1 1 2 7 7 3 4 2 2 6 5 6 7 8 9 11 12 13 13 13 14 14 14 13 13 14 13 12 11 11 10 8 8 7 6 5 6 4 5 5 5
1 5 1 3 2 2 3 3 4 2 4 5 4 3 3 8 6 9 11 11 11 12 13 13 13 14 12 13 12 13 13 12 12 12 10 8 8 7 6 6 6 4 5 5
7 3 3 3 8 10 5 3 3 3 2 2 2 4 5 8 6 8 9 10 11 12 12 12 12 13 13 13 14 14 14 14 14 13 11 10 9 8 8 7 7 6 5 4
4 1 4 4 3 4 4 7 11 5 5 2 2 3 4 8 7 7 8 8 10 11 12 12 13 13 13 14 14 15 15 15 15 14 13 14 14 13 11 10 10 9 8 7
8 2 4 2 2 1 5 8 5 1 2 5 4 4 6 7 8 6 7 8 8 10 11 11 12 13 14 14 14 14 14 15 15 14 14 14 13 13 13 14 13 11 10 8
3 2 2 2 4 1 5 8 9 10 5 4 7 7 11 9 8 7 7 7 8 9 10 11 11 12 12 13 13 13 14 14 14 14 14 15 15 14 13 13 13 12 12 11
3 2 2 2 3 4 4 2 7 13 12 6 5 5 11 10 8 7 5 5 6 8 10 11 11 11 12 13 13 13 14 14 14 14 14 15 14 14 14 14 14 13 13 12
2 3 2 2 3 3 2 2 1 1 1 5 6 5 8 9 9 7 5 6 7 8 9 9 10 10 11 12 12 12 13 14 14 14 15 15 15 15 14 14 14 14 13 14
2 3 2 4 1 3 4 3 1 3 4 3 5 5 9 9 7 5 6 6 6 7 8 9 9 9 10 11 10 11 11 11 12 12 13 14 14 14 14 14 14 14 14 13
3 2 2 3 1 5 4 2 1 4 4 5 9 8 7 9 8 7 4 4 4 4 5 7 7 8 9 10 10 9 9 10 11 12 12 13 13 13 13 13 14 14 13 13
6 1 3 3 3 1 4 5 4 5 5 4 8 8 10 10 9 5 3 4 4 3 3 4 5 6 7 9 9 9 9 10 11 12 12 13 13 13 12 12 12 12 11 11
4 4 2 3 4 6 4 5 3 1 3 9 8 8 11 10 5 5 6 3 3 3 4 4 4 4 6 8 9 9 10 11 12 13 13 13 12 13 13 12 11 11 10 11
3 1 2 4 4 0 5 7 4 5 4 10 9 8 11 7 3 9 6 4 3 3 3 3 3 4 5 7 8 8 9 10 11 12 13 13 14 14 13 13 11 12 12 11
5 6 4 2 4 8 10 7 5 4 10 10 9 8 6 6 7 6 4 4 3 3 2 2 3 3 4 6 8 9 9 11 12 12 14 14 13 11 10 12 11 11 11 11
4 3 1 4 1 2 10 4 2 5 9 8 8 7 6 7 6 5 4 4 4 3 2 0 3 5 5 6 8 9 11 12 13 12 11 11 11 11 10 12 12 10 10 9
5 4 3 1 5 5 5 2 5 5 7 8 6 8 7 6 6 5 4 4 4 3 2 1 4 5 6 7 9 9 11 12 10 11 12 11 11 11 10 9 9 9 9 9
2 9 6 4 2 2 7 9 9 8 7 8 7 6 7 5 5 4 3 3 3 2 1 2 4 5 7 8 9 9 9 9 10 10 11 11 9 10 11 10 9 9 10 10
9 8 7 5 7 3 3 14 12 11 11 9 9 5 3 3 3 3 3 2 2 3 2 3 4 5 7 8 9 8 6 7 8 11 10 9 9 9 9 10 11 14 20 21
Wind_Direction
185 180 200 204 213 108 102 232 255 47 55 309 271 286 299 316 41 40 41 30 29 22 18 24 26 24 78 117 136 141 138 133 137 144 142 145 359 34 4 24 356 7 3 20
163 224 207 168 176 199 213 157 190 161 146 299 300 292 7 100 78 53 35 32 21 16 18 26 35 43 71 101 114 123 123 132 111 100 63 17 30 44 42 26 358 13 12 3
197 69 167 190 195 209 232 235 236 295 326 242 285 250 155 135 76 54 42 31 22 17 13 23 39 56 75 86 98 101 103 94 80 91 111 96 133 192 182 103 131 339 338 35
232 106 190 193 203 203 220 215 235 239 261 259 312 268 210 158 106 44 31 25 17 15 20 24 38 54 64 72 81 86 82 76 61 32 19 21 2 350 21 19 3 291 266 137
128 170 172 201 201 191 188 153 197 212 224 289 202 251 128 158 173 21 20 19 17 17 22 33 42 59 59 58 63 68 70 58 44 23 20 1 13 13 24 343 312 287 232 274
90 60 192 101 94 198 137 126 121 170 221 243 184 246 144 43 357 355 15 19 20 19 25 41 54 57 57 53 51 48 50 44 35 25 17 13 5 1 352 346 318 287 266 246
123 154 137 180 114 126 192 178 137 194 201 233 128 215 57 81 37 21 12 21 23 28 30 31 39 43 43 42 37 40 35 36 21 22 14 9 360 356 342 340 335 329 295 258
173 200 186 176 231 170 199 219 224 211 193 151 141 220 105 88 66 55 48 38 33 33 33 36 35 35 35 32 29 30 24 28 22 18 8 3 358 347 337 335 328 322 317 315
185 153 100 247 253 174 168 223 20 110 100 266 174 112 133 132 77 56 48 43 37 34 32 31 33 32 28 29 26 22 22 16 18 9 6 0 354 347 335 331 324 318 337 341
88 121 217 100 228 140 285 141 172 233 192 215 171 232 80 195 57 53 44 39 36 37 39 35 32 29 30 29 23 24 20 14 11 6 357 353 346 344 333 325 316 304 317 322
322 317 121 172 211 186 163 189 228 259 297 253 195 124 14 94 76 67 50 41 36 36 33 36 38 35 30 31 28 25 20 15 11 6 359 352 351 350 341 329 319 315 302 293
160 199 165 186 41 340 308 241 204 223 186 255 359 118 90 98 87 83 75 54 42 38 40 35 30 32 36 31 27 27 22 18 14 10 10 12 6 359 358 349 340 328 319 312
164 175 138 135 193 162 233 207 241 220 331 195 196 120 133 126 114 80 75 64 53 47 38 34 30 25 25 26 26 24 24 20 16 16 14 15 14 7 4 354 347 341 331 324
29 154 302 302 44 352 187 203 209 223 239 228 236 139 181 166 140 118 91 65 48 39 34 32 27 26 23 19 18 17 21 17 14 18 19 14 11 8 4 358 351 346 340 332
58 123 103 67 56 37 56 129 205 221 234 256 341 70 159 159 140 110 96 71 58 44 34 30 23 20 18 15 13 11 17 15 10 14 18 12 5 6 4 4 359 354 351 346
332 111 107 79 77 52 97 86 55 9 344 268 150 114 98 107 127 122 92 76 57 46 35 28 25 24 24 18 12 7 12 12 12 15 14 9 5 3 2 359 360 0 359 353
64 138 189 119 56 135 225 160 146 106 63 343 229 84 139 143 127 114 97 71 53 32 25 25 24 26 24 21 14 15 14 14 18 17 13 10 5 3 360 355 355 355 354 352
108 95 357 108 189 223 82 77 236 103 103 96 104 128 140 131 113 109 109 117 81 43 24 23 18 20 24 20 14 10 17 18 18 16 11 7 3 359 354 356 355 351 346 345
27 79 114 194 211 47 182 192 170 199 155 164 140 135 126 128 127 115 119 84 76 62 52 36 21 18 20 18 4 6 13 13 11 7 1 356 355 348 343 347 344 341 337 334
37 38 320 172 216 227 77 137 112 146 227 167 151 145 153 159 205 132 159 141 117 98 70 39 19 22 18 12 359 2 4 4 1 354 348 342 342 339 334 332 335 326 326 319
108 109 223 197 239 130 132 139 151 184 132 152 150 146 153 184 53 121 137 128 101 89 79 38 27 21 17 6 354 357 352 0 345 341 339 334 334 329 324 322 327 319 321 314
182 171 187 127 217 247 146 125 213 110 132 147 153 154 151 120 128 130 136 149 158 159 149 46 360 357 1 3 353 348 347 344 337 338 330 328 324 322 320 322 316 317 315 314
224 258 189 240 357 100 184 45 106 150 155 162 156 152 149 151 160 159 168 180 186 186 176 53 336 327 347 1 352 337 344 341 339 330 320 315 316 315 322 318 318 315 317 314
215 179 240 291 165 197 200 182 168 173 161 153 150 152 161 167 168 178 187 193 200 194 225 333 322 326 335 350 339 339 338 341 334 323 322 321 320 324 319 316 311 313 312 315
47 158 187 255 210 204 244 219 187 170 146 148 147 162 176 182 186 195 218 232 237 232 247 320 322 324 326 330 324 337 337 334 320 317 314 316 319 317 315 310 308 304 300 303
188 183 189 211 167 198 173 191 186 174 179 176 165 165 191 200 205 173 238 241 224 222 228 284 311 320 317 320 323 330 334 326 319 317 320 321 312 315 308 309 306 298 300 303